Weather reports worldwide

Advertisment
Aachen-Orsbach, Germany (10505): temperature & dewpoint: 10.01.2018 08:00:00 - 16.01.2018 08:00:00 (CET)Aachen-Orsbach, Germany (10505): temperature 5cm & temperature -5cm: 10.01.2018 08:00:00 - 16.01.2018 08:00:00 (CET)Aachen-Orsbach, Germany (10505): temperature -20cm & temperature -100cm: 10.01.2018 08:00:00 - 16.01.2018 08:00:00 (CET)Aachen-Orsbach, Germany (10505): wind speed & gusts: 10.01.2018 08:00:00 - 16.01.2018 08:00:00 (CET)Aachen-Orsbach, Germany (10505): wind direction: 10.01.2018 08:00:00 - 16.01.2018 08:00:00 (CET)Aachen-Orsbach, Germany (10505): reduced air pressure: 10.01.2018 08:00:00 - 16.01.2018 08:00:00 (CET)Aachen-Orsbach, Germany (10505): visibility: 10.01.2018 08:00:00 - 16.01.2018 08:00:00 (CET)Aachen-Orsbach, Germany (10505): sunshine duration: 10.01.2018 08:00:00 - 16.01.2018 08:00:00 (CET)Aachen-Orsbach, Germany (10505): precipitation: 10.01.2018 08:00:00 - 16.01.2018 08:00:00 (CET)
Date & Time tt [°C] td [°C] tt 5cm [°C] tt -5cm [°C] tt -20cm [°C] tt -100cm [°C] ff [km/h] ff [kn] fx [km/h] fx [kn] dd ppp [hPa] vv [km] sd [min] rr [mm]
16.01.2018 08:00:00 5,5 3,3 4,7 4,1 4,2 6,8 34 18 55 30 WSW 993,0 62 0 0,0
16.01.2018 07:00:00 5,9 3,6 5,4 4,0 4,2 6,8 32 17 48 26 WSW 992,9 44 0 0,0
16.01.2018 06:00:00 5,8 3,8 5,2 3,9 4,2 6,7 28 15 47 25 WSW 993,3 47 0 0,1
16.01.2018 05:00:00 5,4 3,8 4,4 3,9 4,2 6,8 34 18 70 38 WSW 994,0 21 0 3,0
16.01.2018 04:00:00 5,1 3,6 4,6 4,0 4,1 6,9 27 15 45 24 SW 994,4 42 0 0,0
16.01.2018 03:00:00 5,2 3,8 4,1 4,2 4,1 6,9 34 18 46 25 SW 995,1 40 0 0,0
16.01.2018 02:00:00 5,5 4,4 4,8 4,4 4,0 6,9 29 15 52 28 WSW 995,6 35 0 0,2
16.01.2018 01:00:00 5,5 5,1 5,1 4,5 4,0 6,9 32 18 46 25 WSW 995,6 14 0 0,9
16.01.2018 00:00:00 5,8 5,3 5,4 4,6 3,9 6,9 35 19 62 33 W 994,6 8 0 1,9
15.01.2018 23:00:00 6,8 6,0 6,2 4,3 3,8 7,0 28 15 59 32 WSW 994,2 38 0 1,0
15.01.2018 22:00:00 6,3 5,5 5,5 4,0 3,8 7,0 35 19 62 34 SW 994,2 9 0 2,8
15.01.2018 21:00:00 5,2 4,2 4,4 3,7 3,8 7,0 40 22 67 36 SSW 994,2 1,9 0 0,0
15.01.2018 20:00:00 5,1 2,4 4,6 3,6 3,8 7,0 48 26 78 42 SSW 994,8 70 0 0,0
15.01.2018 19:00:00 4,7 2,6 3,9 3,8 3,7 7,0 51 27 76 41 SSW 995,7 35 0 1,3
15.01.2018 18:00:00 5,0 3,1 3,9 3,9 3,7 7,0 44 24 73 39 SSW 997,2 6 0 1,9
15.01.2018 17:00:00 6,1 2,4 4,8 4,0 3,6 7,0 44 24 65 35 SSW 998,3 31 0 0,0
15.01.2018 16:00:00 6,0 2,2 5,6 4,1 3,5 7,0 44 24 70 38 SSW 1000,3 48 0 0,0
15.01.2018 15:00:00 5,8 2,7 5,4 4,1 3,4 7,0 41 22 66 36 SSW 1002,7 41 0 0,1
15.01.2018 14:00:00 6,0 2,8 5,6 4,0 3,3 7,0 37 20 64 35 SSW 1004,0 38 0 0,0
15.01.2018 13:00:00 5,8 3,1 5,1 3,8 3,2 7,0 36 19 57 31 SSW 1006,9 32 0 0,0
15.01.2018 12:00:00 5,7 3,1 5,7 3,3 3,1 7,0 34 18 53 28 SSW 1008,9 24 0 0,0
15.01.2018 11:00:00 5,6 2,8 5,3 2,8 3,1 7,0 29 16 52 28 SSW 1010,3 29 0 0,0
15.01.2018 10:00:00 4,9 2,0 4,4 2,3 3,0 7,0 30 16 49 26 SSW 1011,2 24 0 0,0
15.01.2018 09:00:00 4,4 1,8 3,8 2,0 3,1 7,0 33 18 53 29 SSW 1011,9 21 0 0,0
15.01.2018 08:00:00 3,9 1,6 3,2 1,8 3,1 7,0 27 15 40 22 SSW 1012,9 16 0 0,0
15.01.2018 07:00:00 3,3 1,3 2,2 1,9 3,1 7,0 19 11 32 18 SSW 1013,8 11 0 0,0
15.01.2018 06:00:00 3,7 1,3 2,8 2,2 3,0 7,0 23 12 36 19 SSW 1014,5 12 0 0,0
15.01.2018 05:00:00 4,6 1,8 4,1 2,3 3,0 7,0 21 12 35 19 SSW 1015,0 14 0 0,0
15.01.2018 04:00:00 4,4 1,2 3,9 2,0 3,0 7,0 21 11 33 18 SSW 1016,0 14 0 0,0
15.01.2018 03:00:00 4,3 1,0 3,7 1,7 3,0 7,0 22 12 42 23 S 1016,6 14 0 0,0
15.01.2018 02:00:00 4,1 0,5 3,5 1,3 3,1 7,0 26 14 42 23 S 1017,3 14 0 0,0
15.01.2018 01:00:00 3,0 -0,2 2,4 1,0 3,2 7,0 24 13 39 21 S 1018,2 12 0 0,0
15.01.2018 00:00:00 2,7 -0,4 1,5 1,1 3,3 7,0 24 13 36 19 S 1018,7 13 0 0,0
14.01.2018 23:00:00 2,8 -0,4 1,6 1,1 3,4 7,0 25 14 37 20 S 1019,1 14 0 0,0
14.01.2018 22:00:00 3,0 0,0 1,7 1,2 3,5 7,0 25 14 35 19 S 1018,9 12 0 0,0
14.01.2018 21:00:00 2,8 0,0 1,2 1,3 3,6 7,0 16 9 32 17 SSE 1019,2 11 0 0,0
14.01.2018 20:00:00 2,3 0,0 0,7 1,5 3,7 7,0 14 7 27 15 SE 1019,3 11 0 0,0
14.01.2018 19:00:00 2,0 0,0 -1,9 1,8 3,8 7,0 7 4 16 9 ESE 1019,7 10 0 0,0
14.01.2018 18:00:00 2,5 0,1 0,1 2,6 3,7 7,0 10 6 16 9 SE 1019,7 11 0 0,0
14.01.2018 17:00:00 3,1 0,5 1,2 3,6 3,6 7,0 12 7 22 12 SSE 1019,5 12 28 0,0
14.01.2018 16:00:00 4,7 1,2 4,3 4,5 3,5 7,0 11 6 18 10 SE 1019,4 13 60 0,0
14.01.2018 15:00:00 5,3 1,3 5,7 4,9 3,3 7,0 11 6 18 10 S 1019,4 15 0 0,0
14.01.2018 14:00:00 5,4 1,1 6,6 4,6 3,1 7,0 9 5 16 9 SE 1019,7 14 60 0,0
14.01.2018 13:00:00 4,8 0,7 6,7 3,6 3,1 7,0 10 5 21 12 ESE 1020,1 13 60 0,0
14.01.2018 12:00:00 4,1 0,6 5,0 2,0 3,1 7,0 15 8 26 14 ESE 1020,1 11 60 0,0
14.01.2018 11:00:00 3,0 0,1 3,1 1,0 3,2 7,0 16 9 24 13 ESE 1020,3 10 60 0,0
14.01.2018 10:00:00 1,7 -0,3 1,1 1,0 3,3 7,0 13 7 20 11 ESE 1020,4 9 30 0,0
14.01.2018 09:00:00 0,7 -0,5 -0,8 1,0 3,4 7,0 16 9 21 11 E 1020,2 8 0 0,0
14.01.2018 08:00:00 1,1 -0,4 -0,5 1,1 3,5 7,0 18 10 23 12 E 1019,9 9 0 0,0
14.01.2018 07:00:00 0,5 -0,4 -0,9 1,1 3,6 7,0 18 10 22 12 E 1020,0 7 0 0,0
14.01.2018 06:00:00 0,9 -0,2 -0,7 1,2 3,7 7,0 18 10 22 12 E 1019,8 8 0 0,0
14.01.2018 05:00:00 1,1 -0,1 -0,6 1,3 3,8 7,0 18 10 23 13 E 1020,0 9 0 0,0
14.01.2018 04:00:00 2,0 0,4 0,1 1,7 3,9 7,0 18 10 23 13 E 1020,3 10 0 0,0
14.01.2018 03:00:00 2,4 0,4 0,3 2,4 3,9 7,0 14 8 19 11 E 1020,4 10 0 0,0
14.01.2018 02:00:00 3,7 0,6 2,8 2,7 3,9 7,0 14 8 26 14 E 1020,4 14 0 0,0
14.01.2018 01:00:00 4,1 0,6 3,4 2,8 3,9 7,0 14 7 29 16 ESE 1020,7 15 0 0,0
14.01.2018 00:00:00 4,4 0,2 3,8 2,7 4,0 7,0 19 10 35 19 ESE 1021,1 20 0 0,0
13.01.2018 23:00:00 4,5 0,0 3,8 2,6 4,0 7,0 20 11 33 18 ESE 1021,3 21 0 0,0
13.01.2018 22:00:00 4,2 0,1 3,5 2,5 4,1 7,0 13 7 30 16 ESE 1021,7 19 0 0,0
13.01.2018 21:00:00 4,2 -0,1 3,4 2,3 4,2 7,0 15 8 27 15 ESE 1021,9 21 0 0,0
13.01.2018 20:00:00 3,6 0,0 2,6 2,0 4,3 7,0 14 8 30 16 E 1022,2 17 0 0,0
13.01.2018 19:00:00 1,4 -0,8 -2,0 2,0 4,4 7,0 9 5 15 8 E 1022,6 15 0 0,0
13.01.2018 18:00:00 1,4 -0,7 -1,4 2,9 4,4 7,0 11 6 19 10 E 1022,9 13 0 0,0
13.01.2018 17:00:00 2,8 0,0 1,0 3,9 4,4 7,0 15 8 34 18 E 1022,9 18 16 0,0
13.01.2018 16:00:00 3,8 0,4 3,6 4,8 4,3 7,0 21 12 31 17 ESE 1022,9 17 47 0,0
13.01.2018 15:00:00 4,6 0,6 5,1 5,2 4,1 7,0 21 11 26 14 SE 1023,1 15 59 0,0
13.01.2018 14:00:00 5,3 1,5 6,8 4,8 4,0 7,0 16 8 24 13 ESE 1023,6 16 44 0,0
13.01.2018 13:00:00 4,8 1,7 4,9 4,3 3,9 7,0 11 6 21 11 ESE 1024,5 11 19 0,0
13.01.2018 12:00:00 4,9 1,2 5,9 3,4 3,9 7,0 14 7 22 12 SE 1025,1 14 23 0,0
13.01.2018 11:00:00 4,3 1,7 4,3 2,6 4,0 7,0 13 7 21 12 ESE 1025,2 10 0 0,0
13.01.2018 10:00:00 3,2 2,9 2,9 1,7 4,1 7,0 10 6 14 8 E 1025,1 4,3 0 0,0
13.01.2018 09:00:00 1,9 1,9 0,7 1,4 4,2 7,0 9 5 11 6 E 1024,8 2,6 0 0,0
13.01.2018 08:00:00 1,3 1,3 -0,8 1,5 4,4 7,0 8 4 10 5 E 1024,9 3,0 0 0,0
13.01.2018 07:00:00 1,5 1,5 -2,7 1,6 4,6 7,0 5 3 9 5 ESE 1025,1 1,7 0 0,0
13.01.2018 06:00:00 1,0 1,0 -1,8 1,9 4,7 7,0 8 4 13 7 ESE 1025,5 0,5 0 0,0
13.01.2018 05:00:00 1,7 1,7 -1,5 2,5 4,8 7,0 9 5 10 5 E 1025,8 0,1 0 0,0
13.01.2018 04:00:00 2,4 2,4 -0,6 3,2 4,9 7,0 7 4 9 5 E 1026,0 0,1 0 0,0
13.01.2018 03:00:00 2,9 2,9 1,9 3,7 4,9 7,0 8 5 11 6 E 1026,1 1,0 0 0,0
13.01.2018 02:00:00 3,5 3,5 2,9 3,8 5,0 7,0 11 6 13 7 E 1026,3 1,6 0 0,0
13.01.2018 01:00:00 3,8 3,8 3,3 4,0 5,0 7,0 11 6 14 8 ESE 1026,6 1,6 0 0,0
13.01.2018 00:00:00 3,6 3,6 3,1 4,2 5,1 7,0 9 5 13 7 E 1026,9 0,7 0 0,0
12.01.2018 23:00:00 4,0 4,0 4,0 4,4 5,1 7,0 10 6 14 8 E 1027,0 0,7 0 0,0
12.01.2018 22:00:00 4,1 4,1 4,0 4,4 5,1 7,0 9 5 12 7 ENE 1027,1 0,7 0 0,0
12.01.2018 21:00:00 4,2 4,2 4,2 4,4 5,2 7,0 8 4 10 5 ENE 1026,9 1,1 0 0,0
12.01.2018 20:00:00 4,2 4,2 4,1 4,2 5,3 7,0 6 4 10 5 E 1026,7 0,7 0 0,0
12.01.2018 19:00:00 3,7 3,7 2,9 4,1 5,3 7,0 7 4 9 5 ENE 1026,7 1,1 0 0,0
12.01.2018 18:00:00 3,7 3,5 -0,3 5,0 5,3 7,0 4 2 4 2 N 1026,7 2,0 0 0,0
12.01.2018 17:00:00 4,7 3,9 3,8 5,9 5,2 7,0 4 2 6 3 NW 1026,7 6 0 0,0
12.01.2018 16:00:00 5,2 4,1 5,7 6,1 5,2 7,0 4 2 7 4 W 1026,5 7 0 0,0
12.01.2018 15:00:00 5,0 4,1 5,6 6,1 5,1 7,1 5 3 6 3 W 1026,3 6 0 0,0
12.01.2018 14:00:00 4,7 3,7 5,4 5,7 5,0 7,1 2 1 7 4 SE 1026,5 6 0 0,0
12.01.2018 13:00:00 4,4 4,4 5,1 5,3 5,0 7,1 4 2 7 4 SW 1026,6 1,0 0 0,0
12.01.2018 12:00:00 4,3 4,3 4,7 5,0 5,0 7,1 3 2 10 5 W 1026,9 0,2 0 0,0
12.01.2018 11:00:00 4,1 4,1 4,5 4,7 5,0 7,1 9 5 12 7 W 1026,8 0,1 0 0,0
12.01.2018 10:00:00 3,9 3,9 4,2 4,5 5,0 7,1 4 2 10 5 NW 1026,4 0,1 0 0,0
12.01.2018 09:00:00 3,8 3,8 3,9 4,5 5,0 7,1 6 4 10 5 WNW 1026,0 0,1 0 0,0
12.01.2018 08:00:00 3,8 3,8 3,9 4,5 5,0 7,1 6 4 9 5 W 1025,6 0,1 0 0,0
12.01.2018 07:00:00 3,8 3,8 4,0 4,6 5,1 7,1 5 3 8 4 WNW 1025,2 0,2 0 0,0
12.01.2018 06:00:00 3,9 3,9 4,0 4,7 5,1 7,1 5 3 10 6 NW 1025,0 0,1 0 0,0
12.01.2018 05:00:00 3,9 3,9 4,0 4,8 5,1 7,1 8 4 11 6 NW 1024,9 0,1 0 0,0
12.01.2018 04:00:00 4,1 4,1 4,2 4,9 5,1 7,1 7 4 11 6 NNW 1024,9 0,1 0 0,0
12.01.2018 03:00:00 4,6 4,6 4,7 4,9 5,1 7,1 10 6 14 7 NNW 1024,4 0,1 0 0,0
12.01.2018 02:00:00 5,0 5,0 5,0 4,9 5,1 7,1 10 6 13 7 NW 1023,7 0,1 0 0,0
12.01.2018 01:00:00 4,9 4,9 4,9 4,9 5,1 7,1 5 3 10 6 W 1023,5 0,2 0 0,0
12.01.2018 00:00:00 5,5 5,5 5,4 5,0 5,1 7,1 10 5 13 7 N 1023,3 0,6 0 0,0
11.01.2018 23:00:00 5,4 5,4 5,3 4,9 5,1 7,1 8 4 11 6 NNW 1022,9 0,8 0 0,0
11.01.2018 22:00:00 5,4 5,4 5,1 4,9 5,1 7,1 4 2 13 7 NNW 1022,3 1,4 0 0,0
11.01.2018 21:00:00 5,7 5,7 5,5 4,9 5,1 7,1 7 4 11 6 N 1021,8 0,9 0 0,0
11.01.2018 20:00:00 5,8 5,7 5,2 4,8 5,1 7,1 6 3 7 4 N 1021,0 2,1 0 0,0
11.01.2018 19:00:00 6,2 6,0 4,0 5,1 5,1 7,1 5 3 9 5 NE 1020,5 3,3 0 0,0
11.01.2018 18:00:00 6,2 5,9 5,5 5,3 5,1 7,1 5 3 9 5 N 1020,0 3,1 0 0,0
11.01.2018 17:00:00 6,3 5,6 5,3 5,5 5,0 7,1 7 4 12 7 NE 1019,2 20 0 0,0
11.01.2018 16:00:00 6,8 5,0 5,6 6,2 4,8 7,1 7 4 12 6 NNE 1018,4 30 0 0,0
11.01.2018 15:00:00 7,2 5,2 7,3 6,3 4,7 7,1 7 4 10 5 NE 1017,5 35 0 0,0
11.01.2018 14:00:00 7,0 5,7 7,4 6,2 4,6 7,1 6 3 13 7 NE 1016,8 25 0 0,0
11.01.2018 13:00:00 7,2 5,3 7,9 5,8 4,4 7,1 4 2 6 3 E 1016,6 30 0 0,0
11.01.2018 12:00:00 6,1 4,9 6,2 4,9 4,4 7,1 5 3 11 6 ENE 1016,6 25 0 0,0
11.01.2018 11:00:00 5,4 4,5 5,3 4,1 4,4 7,1 9 5 11 6 ESE 1016,3 28 0 0,0
11.01.2018 10:00:00 4,4 4,1 4,2 3,7 4,4 7,1 8 4 9 5 E 1015,7 40 0 0,0
11.01.2018 09:00:00 4,7 3,5 3,6 3,5 4,4 7,1 4 2 7 4 E 1014,7 40 0 0,0
11.01.2018 08:00:00 5,1 3,5 3,5 3,4 4,5 7,1 3 1 7 4 E 1014,0 45 0 0,0
11.01.2018 07:00:00 4,2 3,6 3,2 3,3 4,6 7,1 5 3 8 4 E 1013,2 25 0 0,0
11.01.2018 06:00:00 3,7 3,3 2,5 3,2 4,6 7,1 6 3 9 5 E 1012,7 25 0 0,0
11.01.2018 05:00:00 4,0 3,4 2,7 3,3 4,7 7,1 6 4 8 5 ESE 1012,3 23 0 0,0
11.01.2018 04:00:00 4,2 3,4 3,0 3,2 4,8 7,1 6 4 9 5 SE 1012,1 29 0 0,0
11.01.2018 03:00:00 4,2 2,6 1,6 3,3 4,9 7,1 8 4 15 8 SE 1011,8 34 0 0,0
11.01.2018 02:00:00 4,6 3,8 1,2 3,9 5,0 7,1 6 4 14 8 SE 1011,3 18 0 0,0
11.01.2018 01:00:00 4,3 3,4 1,0 4,4 5,0 7,1 9 5 17 9 SW 1011,2 23 0 0,0
11.01.2018 00:00:00 5,9 4,5 5,1 5,0 5,0 7,1 13 7 20 11 SW 1011,0 30 0 0,0
10.01.2018 23:00:00 5,9 4,8 5,2 5,0 5,0 7,1 11 6 17 9 SSW 1010,8 26 0 0,1
10.01.2018 22:00:00 5,8 4,9 5,1 5,0 5,0 7,1 10 6 15 8 S 1010,6 18 0 0,2
10.01.2018 21:00:00 5,9 4,6 5,1 5,0 5,0 7,1 11 6 16 9 S 1010,3 13 0 0,2
10.01.2018 20:00:00 6,1 4,0 5,0 5,1 5,0 7,2 10 6 14 7 S 1010,0 21 0 0,1
10.01.2018 19:00:00 6,4 3,7 5,2 5,2 5,0 7,2 8 4 16 9 SSW 1009,6 11 0 0,0
10.01.2018 18:00:00 6,7 3,5 6,0 5,5 5,0 7,2 11 6 26 14 SSW 1009,3 62 0 0,0
10.01.2018 17:00:00 6,9 3,7 6,1 5,8 4,9 7,2 8 4 19 11 S 1009,0 60 0 0,0
10.01.2018 16:00:00 7,1 3,5 6,7 6,2 4,8 7,2 14 8 23 13 SW 1008,7 60 0 0,0
10.01.2018 15:00:00 7,6 4,0 7,4 6,6 4,6 7,2 14 8 36 20 SW 1008,4 60 13 0,0
10.01.2018 14:00:00 8,0 3,7 8,5 6,2 4,5 7,2 24 13 47 25 SW 1008,2 60 26 0,0
10.01.2018 13:00:00 7,6 4,1 7,5 5,7 4,4 7,2 25 13 39 21 SSW 1008,3 60 0 0,0
10.01.2018 12:00:00 7,4 3,9 7,5 5,1 4,4 7,2 24 13 38 21 SSW 1008,9 60 0 0,0
10.01.2018 11:00:00 6,9 3,5 6,4 4,6 4,3 7,2 23 12 41 22 SSW 1009,3 60 0 0,0
10.01.2018 10:00:00 6,6 3,5 5,8 4,5 4,3 7,2 24 13 36 19 SSW 1009,1 60 0 0,0
10.01.2018 09:00:00 6,6 3,8 5,7 4,5 4,3 7,2 21 11 30 16 S 1008,9 60 0 0,0
10.01.2018 08:00:00 6,5 4,6 5,4 4,5 4,2 7,2 21 11 40 22 S 1009,0 60 0 0,2

tt = temperature
td = dewpoint
tt 5cm = temperature 5cm
tt -5cm = temperature -5cm
tt -20cm = temperature -20cm
tt -100cm = temperature -100cm
ff = wind speed
fx = gusts
dd = wind direction
ppp = reduced air pressure
vv = visibility
sd = sunshine duration
rr = precipitation

Next stations